Location: Wellington
(41.3000°S, 174.7830°E)
Time: 00:42:11
(UTC+12:00)

Cosmos 1745 Rocket - Pass Details

Date: 24 January 2019
Orbit: 952 x 999 km, 83.0° (Epoch: 21 April)

Event Time Altitude Azimuth Distance (km) Brightness Sun altitude
Exits shadow 23:05:21 21° 349° (N) 2,083 5.4 -20.5°
Maximum altitude 23:09:50 81° 263° (W) 1,021 4.1 -21.0°
Drops below altitude 10° 23:16:16 10° 175° (S) 2,780 7.0 -21.7°
Sets 23:18:48 0° 173° (S) 3,729 7.8 -22.0°
